    Orbital elements:
        C/2019 K5 (Young)                                                           
    Epoch 2019 June 6.0 TT = JDT 2458640.5                                          
    T 2019 June 22.74858 TT                                 Williams                
    q   2.0350037            (2000.0)            P               Q                  
    z  +0.0067253      Peri.  174.91524     +0.99067188     +0.13565146             
     +/-0.0000985      Node   177.18809     -0.13247772     +0.98101983             
    e   0.9863140      Incl.   15.31591     -0.03191996     +0.13855961             
    H                                                                               
    From 210 observations 2019 May 17-Aug. 11, mean residual 0".5.                  
                                                                                    
        C/2019 K5 (Young)                                                           
    Epoch 2019 Apr. 27.0 TT = JDT 2458600.5                                         
    T 2019 June 22.74561 TT                                 Williams                
    q   2.0350120            (2000.0)            P               Q                  
    z  +0.0067277      Peri.  174.91377     +0.99066838     +0.13567703             
     +/-0.0000985      Node   177.18808     -0.13250304     +0.98101643             
    e   0.9863091      Incl.   15.31591     -0.03192357     +0.13855865             
    H                                                                               
    From 210 observations 2019 May 17-Aug. 11, mean residual 0".5.                  
                                                                                    
    Ephemeris:
    Date    TT    R. A. (2000) Decl.     Delta      r    Elong.  Phase   m1    m2
    2019 07 18    02 06 20.5 +10 44 32   1.9410  2.0573    81.7    29.3  17.6
    ...
    2019 08 02    02 34 15.8 +10 47 13   1.8363  2.0910    89.5    29.0  17.5
    ...
    2019 08 10    02 47 32.3 +10 30 49   1.7841  2.1149    94.2    28.6  17.5
    ...
    2019 08 16    02 56 37.0 +10 10 27   1.7470  2.1353    97.8    28.0  17.5
    2019 08 17    02 58 03.0 +10 06 24   1.7409  2.1389    98.5    27.9  17.5
    2019 08 18    02 59 27.7 +10 02 09   1.7350  2.1426    99.1    27.8  17.5
    ...
    2019 08 24    03 07 24.7 +09 32 51   1.7003  2.1658   103.1    27.1  17.5
    ...
    2019 09 01    03 16 32.3 +08 43 54   1.6577  2.1998   108.7    25.8  17.5
    ...
    2019 09 16    03 28 40.7 +06 45 47   1.5921  2.2722   120.3    22.5  17.6
    
    A. U. Tomatic                (C) Copyright 2019 MPC           M.P.E.C. 2019-Q17
    


    Read MPEC 2019-Q16 Read MPEC 2019-Q18


    MPEC number:

    Enter an MPEC number in one of the following forms:

    • 1997-B01 (the full form)
    • J97B01 (the packed version of the full form)
    • B01 (the abbreviated form)